This is the latest recevied weather packets stored in our database for station/object K0QED. If no packets are shown the sender has not sent any weather packets the latest 10 day(s).
| Time | Temp. | Humidity | Pressure | Rain* | Wind** | Luminosity | Snow |
|---|---|---|---|---|---|---|---|
| 1777563697 | 0.56° C | 99% | 1021.7 hPa | 0 mm | - | 71 W/m² | - |
| 1777563393 | 0° C | 99% | 1021.9 hPa | 0 mm | - | 63 W/m² | - |
| 1777563088 | 0° C | 99% | 1022.2 hPa | 1.78 mm | - | 58 W/m² | - |
| 1777562784 | 0° C | 99% | 1022 hPa | 1.78 mm | - | 60 W/m² | - |
| 1777562482 | 0° C | 99% | 1021.9 hPa | 0 mm | - | 60 W/m² | - |
| 1777562179 | 0° C | 99% | 1022.1 hPa | 0 mm | - | 72 W/m² | - |
| 1777561877 | 0° C | 99% | 1022.1 hPa | 1.78 mm | - | 65 W/m² | - |
| 1777561573 | 0.56° C | 99% | 1022 hPa | 1.78 mm | - | 54 W/m² | - |
| 1777561269 | 0° C | 99% | 1022 hPa | 0 mm | - | 77 W/m² | - |
| 1777560963 | 0° C | 99% | 1021.7 hPa | 0 mm | - | 74 W/m² | - |
| 1777560659 | 0° C | 99% | 1022 hPa | 0 mm | - | 74 W/m² | - |
| 1777560357 | 0° C | 99% | 1022 hPa | 1.27 mm | - | 68 W/m² | - |
| 1777560055 | 0° C | 99% | 1022 hPa | 1.27 mm | - | 54 W/m² | - |
| 1777559750 | 0° C | 99% | 1022.4 hPa | 0 mm | - | 62 W/m² | - |
| 1777559447 | 0° C | 99% | 1022 hPa | 0 mm | - | 49 W/m² | - |
| 1777559145 | 0° C | 99% | 1022 hPa | 0 mm | - | 44 W/m² | - |
| 1777558845 | 0° C | 99% | 1022.1 hPa | 1.78 mm | - | 40 W/m² | - |
| 1777558540 | 0° C | 99% | 1021.9 hPa | 1.78 mm | - | 33 W/m² | - |
| 1777558237 | 0° C | 99% | 1022.2 hPa | 0 mm | - | 35 W/m² | - |
| 1777557933 | 0° C | 99% | 1022 hPa | 0 mm | - | 33 W/m² | - |
| 1777557630 | 0° C | 99% | 1022.1 hPa | 0 mm | - | 45 W/m² | - |
| 1777557326 | 0° C | 99% | 1022.1 hPa | 0 mm | - | 49 W/m² | - |
| 1777557022 | 0° C | 99% | 1022.1 hPa | 0 mm | - | 48 W/m² | - |
| 1777556718 | 0° C | 99% | 1022.1 hPa | 0 mm | - | 47 W/m² | - |
| 1777556415 | 0° C | 99% | 1021.9 hPa | 0 mm | - | 36 W/m² | - |
* Rain latest hour (hover to see other rain measurements)
** Current wind speed in m/s (hover to see current wind gust speed)